Location: Middelsbur
(53.6609°N, 7.5020°E)
Time: 13:12:41
(UTC+00:00)

Cosmos 1943 Rocket - Pass Details

Date: 06 July 2020
Orbit: 811 x 845 km, 71.0° (Epoch: 07 August)

Event Time Altitude Azimuth Distance (km) Brightness Sun altitude
Rises 20:48:03 0° 324° (NW) 3,415 8.3 -5.7°
Reaches altitude 10° 20:51:06 10° 339° (NNW) 2,479 6.1 -6.0°
Maximum altitude 20:55:27 22° 29° (NNE) 1,784 4.2 -6.4°
Drops below altitude 10° 20:59:46 10° 79° (E) 2,471 4.4 -6.7°
Sets 21:02:48 0° 95° (E) 3,400 5.0 -7.0°
